FW0896 Weather Reports


Display with metric or nautical units.
time (UTC)temp
F
wind
direction
speed
MPH
gust
MPH
rain 1hr
in
rain 24hr
in
rain mn
in
humidity
%
barometer
mb
20260506073015 36 335 2.0 4.0 0.00 0.00 0.00 64 1015.5
20260506071514 36 337 2.0 4.0 0.00 0.00 0.00 64 1015.4
20260506061509 36 340 5.0 7.0 0.00 0.00 0.00 62 1015.3
20260506044619 40 338 5.0 7.0 0.00 0.00 0.00 57 1014.6
20260506043052 40 336 6.0 7.0 0.00 0.00 0.00 56 1014.7
20260506041552 41 337 5.0 8.0 0.00 0.00 0.00 55 1014.7
20260506040050 42 340 6.0 9.0 0.00 0.00 0.00 54 1014.7
20260506034549 43 338 7.0 11.0 0.00 0.00 0.00 52 1014.5
20260506033047 44 340 10.0 13.0 0.00 0.00 0.00 51 1014.4
20260506031547 44 337 7.0 10.0 0.00 0.00 0.00 50 1014.3
20260506030045 45 340 7.0 11.0 0.00 0.00 0.00 49 1014.1
20260506024547 45 338 8.0 10.0 0.00 0.00 0.00 49 1013.9
20260506023055 45 338 7.0 11.0 0.00 0.00 0.00 48 1013.7
20260506021553 46 338 6.0 9.0 0.00 0.00 0.00 47 1013.4
20260506020041 46 331 7.0 12.0 0.00 0.00 0.00 46 1013.2
20260506014540 47 334 10.0 13.0 0.00 0.00 0.00 45 1013.0
20260506013036 47 333 7.0 14.0 0.00 0.00 0.00 43 1012.8
20260506011535 47 343 9.0 15.0 0.00 0.00 0.00 43 1012.5
20260506010046 48 327 7.0 13.0 0.00 0.00 0.00 42 1012.4
20260506004531 48 323 8.0 12.0 0.00 0.00 0.00 42 1012.3
20260506003033 48 329 11.0 17.0 0.00 0.00 0.00 42 1012.2
20260506001531 49 338 11.0 14.0 0.00 0.00 0.00 41 1012.0
20260506000030 49 325 9.0 13.0 0.00 0.00 0.00 40 1012.0
20260505234549 49 328 8.0 11.0 0.00 0.00 0.00 40 1011.9
20260505233036 49 337 8.0 13.0 0.00 0.00 0.00 39 1011.9
20260505231532 50 331 9.0 14.0 0.00 0.00 0.00 40 1011.9
20260505230028 49 324 7.0 14.0 0.00 0.00 0.00 39 1011.9
20260505224532 50 336 8.0 15.0 0.00 0.00 0.00 40 1011.8
20260505223027 50 333 11.0 15.0 0.00 0.00 0.00 39 1011.8
20260505221527 50 330 9.0 16.0 0.00 0.00 0.00 39 1011.9
20260505220026 51 318 10.0 15.0 0.00 0.00 0.00 38 1011.8
20260505214549 50 303 8.0 17.0 0.00 0.00 0.00 38 1011.9
20260505213023 50 328 7.0 14.0 0.00 0.00 0.00 39 1011.8
20260505211522 51 343 9.0 16.0 0.00 0.00 0.00 40 1011.9
20260505210021 49 306 7.0 14.0 0.00 0.00 0.00 39 1011.9
20260505204521 50 325 7.0 14.0 0.00 0.00 0.00 40 1011.9
20260505203032 49 313 6.0 15.0 0.00 0.00 0.00 42 1012.1
20260505201525 50 327 10.0 17.0 0.00 0.00 0.00 41 1012.1
20260505200017 50 295 4.0 15.0 0.00 0.00 0.00 41 1012.1
20260505194515 50 323 11.0 18.0 0.00 0.00 0.00 43 1012.1
20260505193014 49 344 9.0 13.0 0.00 0.00 0.00 42 1012.0
20260505191514 50 318 9.0 13.0 0.00 0.00 0.00 42 1012.0
20260505190012 49 350 9.0 15.0 0.00 0.00 0.00 43 1012.1
20260505184511 49 293 7.0 13.0 0.00 0.00 0.00 42 1012.1
20260505183015 49 328 10.0 14.0 0.00 0.00 0.00 44 1012.2
20260505181509 49 278 7.0 10.0 0.00 0.00 0.00 44 1012.2
20260505180007 47 323 7.0 11.0 0.00 0.00 0.00 46 1012.2
20260505174508 47 313 6.0 12.0 0.00 0.00 0.00 47 1012.3
20260505173004 47 328 5.0 11.0 0.00 0.00 0.00 48 1012.2
20260505171503 47 298 7.0 10.0 0.00 0.00 0.00 47 1012.2
20260505170001 47 307 4.0 9.0 0.00 0.00 0.00 49 1012.0
20260505164501 47 315 6.0 10.0 0.00 0.00 0.00 48 1012.1
20260505163100 47 291 5.0 9.0 0.00 0.00 0.00 50 1012.1
20260505161619 46 293 5.0 10.0 0.00 0.00 0.00 51 1012.2
20260505160104 46 333 7.0 11.0 0.00 0.00 0.00 52 1012.2
20260505153054 46 313 3.0 10.0 0.00 0.00 0.00 52 1012.1
20260505151551 45 336 4.0 9.0 0.00 0.00 0.00 53 1012.1
20260505124538 39 290 3.0 4.0 0.00 0.00 0.00 69 1011.0
20260505123034 37 287 2.0 4.0 0.00 0.00 0.00 71 1010.9
20260505121534 36 285 1.0 3.0 0.00 0.00 0.00 72 1010.8
20260505120033 35 285 1.0 3.0 0.00 0.00 0.00 73 1010.7
20260505114530 35 317 1.0 3.0 0.00 0.00 0.00 72 1010.4
20260505113026 35 323 1.0 3.0 0.00 0.00 0.00 72 1010.1
20260505111524 36 326 2.0 3.0 0.00 0.00 0.00 71 1009.9
20260505101529 37 323 3.0 5.0 0.00 0.00 0.00 68 1008.8
20260505100021 37 319 4.0 5.0 0.00 0.00 0.00 68 1008.7
20260505094510 37 309 3.0 4.0 0.00 0.00 0.00 67 1008.7
20260505093021 37 307 3.0 4.0 0.00 0.00 0.00 67 1008.8
20260505091507 38 300 3.0 4.0 0.00 0.00 0.00 66 1008.7
20260505090003 38 301 3.0 4.0 0.00 0.00 0.00 65 1008.6
20260505084501 39 302 3.0 4.0 0.00 0.00 0.00 65 1008.5
20260505083104 39 318 2.0 4.0 0.00 0.00 0.00 64 1008.4
20260505081602 40 320 3.0 4.0 0.00 0.00 0.00 63 1008.1